TimeEDT,TemperatureF,Dew PointF,Humidity,Sea Level PressureIn,VisibilityMPH,Wind Direction,Wind SpeedMPH,Gust SpeedMPH,PrecipitationIn,Events,Conditions,WindDirDegrees,DateUTC
12:52 AM,52.0,50.0,93,30.01,10.0,Calm,Calm,-,N/A,,Clear,0,2013-08-15 04:52:00
1:52 AM,51.1,50.0,96,30.02,10.0,Calm,Calm,-,N/A,,Clear,0,2013-08-15 05:52:00
2:52 AM,48.0,46.9,96,30.03,10.0,Calm,Calm,-,N/A,,Clear,0,2013-08-15 06:52:00
3:52 AM,48.0,46.0,93,30.04,10.0,Calm,Calm,-,N/A,,Clear,0,2013-08-15 07:52:00
4:52 AM,46.9,45.0,93,30.06,4.0,Calm,Calm,-,N/A,,Clear,0,2013-08-15 08:52:00
5:00 AM,46.4,44.6,93,30.06,9.0,Calm,Calm,-,N/A,,Scattered Clouds,0,2013-08-15 09:00:00
5:15 AM,46.4,44.6,93,30.06,2.5,Calm,Calm,-,N/A,,Mostly Cloudy,0,2013-08-15 09:15:00
5:19 AM,46.4,44.6,93,30.06,1.2,Calm,Calm,-,N/A,,Mostly Cloudy,0,2013-08-15 09:19:00
5:24 AM,46.4,44.6,93,30.06,0.8,Calm,Calm,-,N/A,,Mist,0,2013-08-15 09:24:00
5:52 AM,46.9,46.0,97,30.07,0.5,Calm,Calm,-,N/A,Fog,Fog,0,2013-08-15 09:52:00
6:52 AM,46.9,46.0,97,30.09,1.2,Calm,Calm,-,N/A,,Overcast,0,2013-08-15 10:52:00
6:56 AM,46.4,46.4,100,30.09,2.0,Calm,Calm,-,N/A,,Overcast,0,2013-08-15 10:56:00
7:17 AM,48.2,46.4,93,30.09,10.0,Calm,Calm,-,N/A,,Mostly Cloudy,0,2013-08-15 11:17:00
7:39 AM,50.0,48.2,94,30.09,10.0,Calm,Calm,-,N/A,,Scattered Clouds,0,2013-08-15 11:39:00
7:52 AM,51.1,48.9,92,30.10,10.0,Calm,Calm,-,N/A,,Partly Cloudy,0,2013-08-15 11:52:00
8:52 AM,60.1,52.0,75,30.10,10.0,Calm,Calm,-,N/A,,Clear,0,2013-08-15 12:52:00
9:52 AM,64.9,50.0,58,30.10,10.0,WNW,8.1,-,N/A,,Clear,300,2013-08-15 13:52:00
10:52 AM,68.0,48.9,50,30.10,10.0,WNW,9.2,-,N/A,,Clear,300,2013-08-15 14:52:00
11:52 AM,70.0,50.0,49,30.09,10.0,WSW,10.4,-,N/A,,Scattered Clouds,250,2013-08-15 15:52:00
12:52 PM,71.1,46.0,41,30.07,10.0,West,12.7,19.6,N/A,,Clear,260,2013-08-15 16:52:00
1:52 PM,73.9,46.9,38,30.06,10.0,NW,11.5,16.1,N/A,,Partly Cloudy,310,2013-08-15 17:52:00
2:52 PM,73.9,45.0,35,30.06,10.0,West,10.4,17.3,N/A,,Partly Cloudy,260,2013-08-15 18:52:00
3:52 PM,73.0,46.9,39,30.05,10.0,West,10.4,-,N/A,,Scattered Clouds,280,2013-08-15 19:52:00
4:52 PM,71.1,48.0,44,30.05,10.0,WNW,8.1,-,N/A,,Partly Cloudy,290,2013-08-15 20:52:00
5:52 PM,71.1,48.9,45,30.05,10.0,WNW,5.8,-,N/A,,Scattered Clouds,300,2013-08-15 21:52:00
6:52 PM,71.1,50.0,47,30.07,10.0,West,4.6,-,N/A,,Mostly Cloudy,260,2013-08-15 22:52:00
7:52 PM,66.0,51.1,59,30.09,10.0,SW,3.5,-,N/A,,Clear,230,2013-08-15 23:52:00